| time (UTC) | temp C | wind direction | speed KPH | gust KPH | rain 1hr cm | rain 24hr cm | rain mn cm | humidity % | barometer mb |
| 20260505041525 | 20 | 87 | 3.2 | 9.7 | 0.00 | 0.00 | 0.00 | 74 | 1017.5 |
| 20260505040524 | 20 | 149 | 9.7 | 16.1 | 0.00 | 0.00 | 0.00 | 74 | 1017.6 |
| 20260505035543 | 20 | 157 | 11.3 | 19.3 | 0.00 | 0.00 | 0.00 | 73 | 1017.6 |
| 20260505034521 | 20 | 171 | 6.4 | 9.7 | 0.00 | 0.00 | 0.00 | 74 | 1017.4 |
| 20260505033520 | 20 | 143 | 11.3 | 17.7 | 0.00 | 0.00 | 0.00 | 71 | 1017.4 |
| 20260505032519 | 20 | 132 | 8.0 | 11.3 | 0.00 | 0.00 | 0.00 | 71 | 1017.7 |
| 20260505031517 | 20 | 155 | 9.7 | 16.1 | 0.00 | 0.00 | 0.00 | 70 | 1017.7 |
| 20260505030546 | 20 | 162 | 9.7 | 9.7 | 0.00 | 0.00 | 0.00 | 71 | 1017.9 |
| 20260505025605 | 20 | 175 | 16.1 | 20.9 | 0.00 | 0.00 | 0.00 | 73 | 1018.0 |
| 20260505024543 | 20 | 181 | 12.9 | 19.3 | 0.00 | 0.00 | 0.00 | 74 | 1018.2 |
| 20260505023602 | 20 | 171 | 16.1 | 19.3 | 0.00 | 0.00 | 0.00 | 77 | 1018.4 |
| 20260505022601 | 20 | 134 | 12.9 | 16.1 | 0.00 | 0.00 | 0.00 | 78 | 1018.4 |
| 20260505021600 | 20 | 129 | 20.9 | 29.0 | 0.00 | 0.00 | 0.00 | 79 | 1018.4 |
| 20260505020538 | 20 | 129 | 11.3 | 16.1 | 0.00 | 0.00 | 0.00 | 80 | 1018.5 |
| 20260505015536 | 20 | 135 | 6.4 | 8.0 | 0.00 | 0.00 | 0.00 | 82 | 1018.6 |
| 20260505014535 | 20 | 146 | 11.3 | 17.7 | 0.00 | 0.00 | 0.00 | 83 | 1018.7 |
| 20260505013534 | 20 | 127 | 11.3 | 14.5 | 0.00 | 0.00 | 0.00 | 82 | 1018.9 |
| 20260505012553 | 20 | 127 | 8.0 | 12.9 | 0.00 | 0.00 | 0.00 | 82 | 1018.9 |
| 20260505011531 | 20 | 171 | 16.1 | 22.5 | 0.00 | 0.00 | 0.00 | 81 | 1018.8 |
| 20260505010530 | 20 | 161 | 9.7 | 16.1 | 0.00 | 0.00 | 0.00 | 82 | 1018.9 |
| 20260505005529 | 21 | 138 | 14.5 | 22.5 | 0.00 | 0.00 | 0.00 | 79 | 1019.1 |
| 20260505004609 | 21 | 167 | 9.7 | 14.5 | 0.00 | 0.00 | 0.00 | 78 | 1019.1 |
| 20260505003527 | 21 | 160 | 8.0 | 11.3 | 0.00 | 0.00 | 0.00 | 81 | 1019.0 |
| 20260505002525 | 20 | 151 | 11.3 | 16.1 | 0.00 | 0.00 | 0.00 | 85 | 1018.9 |
| 20260505001525 | 21 | 192 | 8.0 | 16.1 | 0.00 | 0.00 | 0.00 | 86 | 1018.9 |
| 20260505000523 | 20 | 155 | 16.1 | 20.9 | 0.00 | 0.00 | 0.00 | 85 | 1018.8 |
| 20260504235522 | 21 | 153 | 9.7 | 14.5 | 0.00 | 0.00 | 0.00 | 86 | 1018.9 |
| 20260504234521 | 20 | 185 | 4.8 | 9.7 | 0.00 | 0.00 | 0.00 | 86 | 1018.9 |
| 20260504233520 | 21 | 118 | 6.4 | 9.7 | 0.00 | 0.00 | 0.00 | 87 | 1018.7 |
| 20260504232518 | 20 | 128 | 8.0 | 9.7 | 0.00 | 0.00 | 0.00 | 88 | 1018.6 |
| 20260504231517 | 20 | 116 | 6.4 | 9.7 | 0.00 | 0.00 | 0.00 | 90 | 1018.6 |
| 20260504230516 | 20 | 164 | 4.8 | 6.4 | 0.00 | 0.00 | 0.00 | 92 | 1018.8 |
| 20260504225545 | 20 | 186 | 4.8 | 8.0 | 0.00 | 0.00 | 0.00 | 93 | 1018.8 |
| 20260504224543 | 20 | 181 | 4.8 | 6.4 | 0.00 | 0.00 | 0.00 | 94 | 1018.6 |
| 20260504223542 | 19 | 104 | 1.6 | 6.4 | 0.00 | 0.00 | 0.00 | 95 | 1018.5 |
| 20260504222621 | 18 | 245 | 1.6 | 4.8 | 0.00 | 0.00 | 0.00 | 96 | 1018.4 |
| 20260504221540 | 18 | 138 | 1.6 | 6.4 | 0.00 | 0.00 | 0.00 | 97 | 1018.1 |
| 20260504220558 | 18 | 101 | 3.2 | 6.4 | 0.00 | 0.00 | 0.00 | 98 | 1018.2 |
| 20260504215536 | 18 | 91 | 1.6 | 4.8 | 0.00 | 0.00 | 0.00 | 99 | 1018.4 |
| 20260504214535 | 18 | 166 | 1.6 | 3.2 | 0.00 | 0.00 | 0.00 | 99 | 1018.1 |
| 20260504213534 | 18 | 149 | 1.6 | 4.8 | 0.00 | 0.00 | 0.00 | 99 | 1018.1 |
| 20260504212532 | 18 | 63 | 3.2 | 4.8 | 0.00 | 0.00 | 0.00 | 99 | 1017.9 |
| 20260504211531 | 17 | 76 | 3.2 | 6.4 | 0.00 | 0.00 | 0.00 | 99 | 1017.8 |
| 20260504210550 | 17 | 15 | 3.2 | 4.8 | 0.00 | 0.00 | 0.00 | 99 | 1017.9 |
| 20260504205529 | 17 | 304 | 3.2 | 6.4 | 0.00 | 0.00 | 0.00 | 99 | 1017.8 |
| 20260504204527 | 17 | 11 | 1.6 | 3.2 | 0.00 | 0.00 | 0.00 | 99 | 1017.6 |
| 20260504203526 | 17 | 0.0 | 3.2 | 0.00 | 0.00 | 0.00 | 99 | 1017.4 | |
| 20260504202525 | 17 | 98 | 1.6 | 4.8 | 0.00 | 0.00 | 0.00 | 99 | 1017.3 |
| 20260504201524 | 17 | 115 | 1.6 | 3.2 | 0.00 | 0.00 | 0.00 | 99 | 1017.3 |
| 20260504200522 | 17 | 0.0 | 3.2 | 0.00 | 0.00 | 0.00 | 99 | 1017.2 | |
| 20260504195521 | 17 | 284 | 1.6 | 3.2 | 0.00 | 0.00 | 0.00 | 99 | 1017.1 |
| 20260504194520 | 17 | 333 | 1.6 | 3.2 | 0.00 | 0.00 | 0.00 | 99 | 1017.0 |
| 20260504193519 | 17 | 201 | 1.6 | 3.2 | 0.00 | 0.00 | 0.00 | 99 | 1016.9 |
| 20260504192518 | 18 | 84 | 3.2 | 6.4 | 0.00 | 0.00 | 0.00 | 99 | 1016.8 |
| 20260504191517 | 18 | 73 | 1.6 | 4.8 | 0.00 | 0.00 | 0.00 | 99 | 1016.7 |
| 20260504190546 | 18 | 235 | 1.6 | 4.8 | 0.00 | 0.00 | 0.00 | 99 | 1016.8 |
| 20260504185544 | 18 | 213 | 4.8 | 8.0 | 0.00 | 0.00 | 0.00 | 99 | 1016.8 |
| 20260504184543 | 18 | 132 | 3.2 | 4.8 | 0.00 | 0.00 | 0.00 | 99 | 1016.8 |
| 20260504183602 | 18 | 51 | 3.2 | 3.2 | 0.00 | 0.00 | 0.00 | 99 | 1016.5 |
| 20260504182540 | 18 | 315 | 4.8 | 4.8 | 0.00 | 0.00 | 0.00 | 99 | 1016.6 |
| 20260504181539 | 18 | 346 | 4.8 | 6.4 | 0.00 | 0.00 | 0.00 | 99 | 1016.6 |
| 20260504180538 | 18 | 241 | 6.4 | 8.0 | 0.00 | 0.00 | 0.00 | 98 | 1016.4 |
| 20260504175536 | 18 | 327 | 4.8 | 6.4 | 0.00 | 0.00 | 0.00 | 98 | 1016.2 |
| 20260504174535 | 18 | 265 | 4.8 | 8.0 | 0.00 | 0.00 | 0.00 | 98 | 1016.1 |
| 20260504173534 | 18 | 182 | 1.6 | 4.8 | 0.00 | 0.00 | 0.00 | 98 | 1016.1 |
| 20260504172553 | 18 | 344 | 3.2 | 6.4 | 0.00 | 0.00 | 0.00 | 97 | 1016.0 |
| 20260504171532 | 18 | 321 | 4.8 | 9.7 | 0.00 | 0.00 | 0.00 | 97 | 1016.2 |
| 20260504170531 | 18 | 31 | 1.6 | 6.4 | 0.00 | 0.00 | 0.00 | 97 | 1016.2 |
| 20260504150545 | 18 | 0.0 | 3.2 | 0.00 | 0.00 | 0.00 | 98 | 1017.1 | |
| 20260504140558 | 20 | 53 | 3.2 | 3.2 | 0.00 | 0.00 | 0.00 | 95 | 1017.0 |
| 20260504130530 | 20 | 348 | 3.2 | 4.8 | 0.00 | 0.00 | 0.00 | 95 | 1017.8 |
| 20260504110545 | 19 | 18 | 1.6 | 3.2 | 0.00 | 0.00 | 0.00 | 93 | 1018.6 |
| 20260504100537 | 20 | 290 | 3.2 | 6.4 | 0.00 | 0.00 | 0.00 | 90 | 1018.4 |
| 20260504081544 | 22 | 307 | 3.2 | 4.8 | 0.00 | 0.10 | 0.00 | 86 | 1017.7 |
| 20260504080542 | 22 | 356 | 1.6 | 3.2 | 0.00 | 0.10 | 0.00 | 86 | 1017.7 |
| 20260504050529 | 22 | 42 | 9.7 | 17.7 | 0.00 | 0.10 | 0.00 | 83 | 1017.0 |